Regional Weather Roundup
Issued by NWS

Home | Current Version | Previous Version | Text Only | Print | Product List | Glossary Off
Versions: 1 2 3 4 5 6 7 8 9 10 11 12 13 14 15 16 17 18 19 20 21 22 23 24 25 26 27 28 29 30 31 32 33 34 35 36 37 38 39 40 41 42 43 44 45 46 47 48 49 50

000
ASUS45 KSLC 020510
RWRUT

UTAH REGIONAL WEATHER ROUNDUP
NATIONAL WEATHER SERVICE SALT LAKE CITY UT
1100 PM MDT FRI AUG 01 2014

UTZ001>011-023>025-020600-

NORTHERN UTAH

CITY           SKY/WX    TMP DP  RH WIND       PRES   REMARKS
HILL AFB       CLEAR     74  51  44 E9        30.14S
LOGAN          CLEAR     70  53  54 CALM      30.13R
OGDEN          CLEAR     73  50  44 S6        30.11S
PROVO AIRPORT  CLEAR     72  52  49 CALM      30.13S
SALT LAKE CITY PTCLDY    76  51  41 S6        30.08F
VERNAL         PTCLDY    67  46  47 CALM      30.17R
WENDOVER       MOCLDY    77  45  31 W6        30.11R
HEBER CITY     CLEAR     61  50  67 E6        30.22S
WEST JORDAN    CLEAR     75  54  46 CALM      30.13S

$$

UTZ012>022-026-027-020600-

SOUTHERN UTAH

CITY           SKY/WX    TMP DP  RH WIND       PRES   REMARKS
BRYCE CANYON   MOCLDY    55  47  74 SW5       30.36R
CEDAR CITY     MOCLDY    71  42  35 CALM      30.18R
MILFORD        PTCLDY    73  40  30 W9        30.12R
MOAB/CYNLANDS  CLEAR     75  49  39 NE7       30.09R
PRICE          CLEAR     71  40  32 CALM      30.22R
ST GEORGE      CLEAR     82  57  42 SE10      29.97R

$$

REGIONAL REPORTS     COLORADO/ARIZONA

CITY           SKY/WX    TMP DP  RH WIND       PRES   REMARKS
CRAIG, CO      CLEAR     57  44  62 E9        30.28R
GRAND JUNCTION PTCLDY    71  50  47 E12       30.17R
RIFLE          CLEAR     63  46  54 E5        30.24R
MONTROSE       CLEAR     65  51  60 SE6       30.26R
CORTEZ         CLEAR     68  50  52 N3        30.23R
PAGE, AZ       MOCLDY    85  46  25 NW6       30.08R
GRAND CANYON   MOCLDY    60  48  64 CALM      30.30R
KINGMAN        MOCLDY    79  54  41 SE28G33   30.07R
FLAGSTAFF      MOCLDY    57  52  83 CALM      30.32R

$$

REGIONAL REPORTS    NEVADA/IDAHO/WYOMING

CITY           SKY/WX    TMP DP  RH WIND       PRES   REMARKS
LAS VEGAS, NV  PTCLDY    97  52  21 S10       29.85R HX  94
ELY            CLOUDY    73  37  27 NW6       30.26R
ELKO           CLOUDY    71  43  36 CALM      30.15R
POCATELLO, ID  CLEAR     65  48  54 NE8       30.16R
BURLEY         PTCLDY    71  47  42 NE10      30.10R
EVANSTON, WY   PTCLDY    65  40  39 E8        30.34R
ROCK SPRINGS   CLOUDY    69  38  32 NE18      30.32R

$$


USA.gov is the U.S. government's official web portal to all federal, state and local government web resources and services.